www.pogodaiklimat.ru

Погода и климат >> Архив погоды >> Австралия >> Новый Южный Уэльс >> Эванс Хед


ПОГОДА в Эванс Хед

  • Прогноз погоды в Эванс Хед
  • Монитор погоды в Эванс Хед

АРХИВ ПОГОДЫ в Эванс Хед

Время (UTC), дата Ветер
(напр.,м/с)
 
Видим.   Явления Облачность Т
(С)
Тd
(С)
f
(%)
Тe
(С)
Тes
(С)
Комфортность P
(гПа)
Po
(гПа)
Тmin
(С)
Tmax
(С)
R
(мм)
R24
(мм)
S
(см)
04 19.04 В 6 н/о н/о +23.5 +19.0 76 +28 +28 душно 1022.8 1015.4
05 19.04 В 6 н/о в посл. час осадки н/о +21.5 +20.0 91 +27 +27 душно 1022.5 1015.1 13
07 19.04 В 5 н/о н/о +21.8 +19.5 87 +27 +27 душно 1022.7 1015.3
08 19.04 В 7 н/о в посл. час дождь {туман} н/о +22.3 +19.3 83 +28 +28 душно 1023.1 1015.7
10 19.04 В 6 н/о н/о +22.0 +19.4 85 +27 +27 душно 1023.9 1016.5
11 19.04 В 6 н/о {туман} н/о +22.3 +19.3 83 +28 +28 душно 1024.2 1016.8
13 19.04 В 6 н/о н/о +22.6 +18.6 78 +28 +28 душно 1023.7 1016.3
14 19.04 В 6 н/о н/о +22.5 +17.8 75 +28 +28 душно 1023.4 1016.0 +25.4
16 19.04 В 6 н/о н/о +22.0 +18.4 80 +27 +27 душно 1022.9 1015.5
17 19.04 В 4 н/о в посл. час дождь {туман} н/о +21.1 +18.9 87 +25 +25 комфорт 1022.5 1015.1
19 19.04 ЮВ 5 н/о н/о +20.8 +18.4 86 +25 +25 комфорт 1022.7 1015.3
20 19.04 ЮВ 7 н/о н/о +22.2 +18.2 78 +27 +27 душно 1023.0 1015.6
22 19.04 В 6 н/о н/о +23.2 +18.3 74 +29 +29 душно 1024.2 1016.8
23 19.04 В 6 н/о н/о +24.5 +18.7 70 +29 +29 душно 1024.5 1017.1
01 20.04 В 6 н/о н/о +25.4 +20.0 72 +31 +31 очень
душно
1024.0 1016.6
02 20.04 В 6 н/о н/о +25.6 +19.9 71 +31 +31 очень
душно
1023.3 1015.9 +20.1
04 20.04 В 7 н/о н/о +24.6 +19.7 74 +30 +30 очень
душно
1022.1 1014.7
05 20.04 В 7 н/о в посл. час дождь {туман} н/о +22.8 +18.8 78 +29 +29 очень
душно
1022.1 1014.7
07 20.04 В 6 н/о н/о +22.9 +18.7 77 +29 +29 очень
душно
1022.0 1014.6
08 20.04 В 7 н/о н/о +22.0 +18.4 80 +27 +27 душно 1022.5 1015.1
10 20.04 В 7 н/о н/о +22.4 +17.5 74 +27 +27 душно 1023.4 1016.0
11 20.04 В 7 н/о н/о +22.5 +17.2 72 +27 +27 душно 1023.7 1016.3
13 20.04 В 6 н/о н/о +22.5 +17.2 72 +27 +27 душно 1023.1 1015.7
14 20.04 В 6 н/о н/о +22.1 +17.7 76 +27 +27 душно 1022.8 1015.4 +26.1
16 20.04 В 5 н/о н/о +22.2 +17.1 73 +27 +27 душно 1022.3 1014.9
17 20.04 В 5 н/о н/о +21.9 +16.4 71 +26 +26 душно 1021.8 1014.4
19 20.04 В 5 н/о н/о +21.5 +16.2 72 +25 +25 комфорт 1021.9 1014.5
20 20.04 В 5 н/о н/о +21.5 +16.7 74 +25 +25 комфорт 1022.4 1015.0
22 20.04 В 5 н/о н/о +22.1 +17.9 77 +27 +27 душно 1023.4 1016.0
23 20.04 В 4 н/о н/о +23.7 +17.9 70 +28 +28 душно 1023.6 1016.2
01 21.04 В 6 н/о н/о +23.6 +17.6 69 +28 +28 душно 1023.3 1015.9
02 21.04 В 7 н/о {туман} н/о +23.9 +16.7 64 +27 +27 жарко 1022.5 1015.1 +21.1
04 21.04 В 7 н/о н/о +24.2 +17.0 64 +28 +28 душно 1021.4 1014.0
05 21.04 В 6 н/о {туман} н/о +23.5 +16.1 63 +27 +27 душно 1021.4 1014.0
07 21.04 В 7 н/о н/о +22.0 +15.8 68 +26 +26 душно 1021.9 1014.5
08 21.04 В 6 н/о н/о +21.9 +16.0 69 +26 +26 душно 1022.1 1014.7
10 21.04 В 6 н/о н/о +21.8 +15.2 66 +25 +25 комфорт 1023.0 1015.6
11 21.04 В 5 н/о н/о +21.6 +14.7 65 +25 +25 комфорт 1023.0 1015.6
13 21.04 В 4 н/о н/о +21.1 +14.7 67 +24 +24 комфорт 1022.7 1015.3
14 21.04 ЮВ 4 н/о н/о +20.9 +15.0 69 +24 +24 комфорт 1022.4 1015.0 +25.5
16 21.04 В 4 н/о н/о +20.9 +15.9 73 +25 +25 комфорт 1021.1 1013.7
17 21.04 В 4 н/о н/о +20.8 +14.9 69 +24 +24 комфорт 1020.9 1013.5
19 21.04 З 3 н/о н/о +17.5 +15.0 85 +18 +18 1021.1 1013.7
20 21.04 ЮЗ 3 н/о н/о +17.3 +15.1 87 +17 +17 1021.3 1013.9
22 21.04 ЮЗ 3 н/о н/о +19.0 +16.4 85 +21 +21 комфорт 1022.6 1015.2
23 21.04 Ю 2 н/о н/о +22.2 +17.8 76 +27 +27 душно 1022.8 1015.4
01 22.04 ЮВ 2 н/о н/о +23.8 +18.0 70 +28 +28 душно 1022.3 1014.9
02 22.04 ЮВ 2 н/о н/о +24.0 +17.7 68 +28 +28 душно 1021.9 1014.5 +17.2
04 22.04 В 5 н/о н/о +24.4 +17.9 67 +29 +29 душно 1021.3 1013.9
05 22.04 В 4 н/о н/о +23.6 +17.6 69 +28 +28 душно 1021.0 1013.6
07 22.04 В 5 н/о н/о +21.2 +17.6 80 +25 +25 комфорт 1021.5 1014.1
08 22.04 В 7 н/о {туман} н/о +21.3 +16.5 74 +25 +25 комфорт 1022.0 1014.6
10 22.04 В 6 н/о н/о +22.1 +16.8 72 +26 +26 душно 1023.2 1015.8
11 22.04 В 6 н/о {туман} н/о +22.1 +17.0 73 +27 +27 душно 1023.4 1016.0
13 22.04 В 6 н/о н/о +21.8 +15.4 67 +25 +25 комфорт 1023.7 1016.3
14 22.04 В 5 н/о н/о +21.5 +15.6 69 +25 +25 комфорт 1023.8 1016.4 +25.7
16 22.04 В 5 н/о н/о +21.4 +15.9 71 +25 +25 комфорт 1023.1 1015.7
17 22.04 В 5 н/о н/о +21.5 +16.5 73 +25 +25 комфорт 1022.9 1015.5
19 22.04 В 5 н/о н/о +21.6 +16.1 71 +25 +25 комфорт 1023.3 1015.9
20 22.04 В 4 н/о н/о +21.6 +16.3 72 +25 +25 комфорт 1023.9 1016.5
22 22.04 ЮЗ 3 н/о н/о +19.6 +17.4 87 +22 +22 комфорт 1025.1 1017.7
23 22.04 В 5 н/о в посл. час дождь {туман} н/о +22.7 +17.8 74 +28 +28 душно 1025.2 1017.8
01 23.04 В 5 н/о н/о +24.7 +17.2 63 +29 +29 душно 1024.7 1017.3
02 23.04 В 5 н/о н/о +24.6 +17.3 64 +29 +29 душно 1023.8 1016.4 +18.9
04 23.04 В 5 н/о н/о +24.4 +17.1 64 +28 +28 душно 1022.9 1015.5
05 23.04 В 5 н/о н/о +23.2 +17.2 69 +28 +28 душно 1022.8 1015.4
07 23.04 В 5 н/о н/о +22.0 +17.8 77 +27 +27 душно 1023.0 1015.6
08 23.04 В 5 н/о н/о +21.8 +17.2 75 +26 +26 душно 1023.6 1016.2
10 23.04 В 5 н/о н/о +20.1 +17.9 87 +23 +23 комфорт 1024.7 1017.3
11 23.04 В 4 н/о {туман} н/о +20.7 +17.7 83 +25 +25 комфорт 1024.5 1017.1
13 23.04 В 5 н/о н/о +21.7 +15.8 69 +25 +25 комфорт 1024.2 1016.8
14 23.04 В 5 н/о н/о +21.3 +14.9 67 +24 +24 комфорт 1023.7 1016.3 +25.5
16 23.04 ЮВ 5 н/о н/о +20.9 +15.9 73 +24 +24 комфорт 1022.7 1015.3
17 23.04 В 5 н/о н/о +21.2 +15.7 71 +24 +24 комфорт 1022.1 1014.7
19 23.04 В 4 н/о н/о +20.6 +15.2 71 +24 +24 комфорт 1022.4 1015.0
20 23.04 В 4 н/о н/о +20.5 +15.3 72 +24 +24 комфорт 1022.7 1015.3
22 23.04 ЮЗ 3 н/о н/о +18.8 +16.6 87 +20 +20 1023.9 1016.5
23 23.04 Ю 2 н/о н/о +22.2 +18.2 78 +27 +27 душно 1023.8 1016.4
01 24.04 ЮВ 4 н/о н/о +23.5 +16.8 66 +27 +27 душно 1023.5 1016.1
02 24.04 ЮВ 3 н/о н/о +23.0 +15.6 63 +27 +27 душно 1022.6 1015.2 +17.2
04 24.04 В 4 н/о н/о +24.0 +16.0 61 +27 +27 жарко 1021.4 1014.0
05 24.04 В 4 н/о н/о +23.1 +15.4 62 +27 +27 душно 1021.4 1014.0
07 24.04 В 4 н/о н/о +21.1 +16.1 73 +24 +24 комфорт 1021.6 1014.2
08 24.04 В 4 н/о н/о +20.8 +15.8 73 +24 +24 комфорт 1021.9 1014.5
10 24.04 В 3 н/о н/о +20.7 +15.5 72 +24 +24 комфорт 1022.5 1015.1
11 24.04 ЮВ 2 н/о н/о +20.4 +15.6 74 +24 +24 комфорт 1022.3 1014.9
13 24.04 штиль 0 н/о н/о +19.6 +15.9 79 +21 +21 комфорт 1021.8 1014.4
14 24.04 ЮЗ 3 н/о н/о +19.0 +16.4 85 +21 +21 комфорт 1021.4 1014.0 +24.8
16 24.04 З 3 н/о н/о +17.9 +16.8 93 +18 +18 1020.8 1013.4
17 24.04 СЗ 3 н/о {туман} н/о +18.0 +16.9 93 +18 +18 1020.5 1013.1
19 24.04 ЮЗ 3 н/о н/о +17.5 +16.7 95 +17 +17 1020.7 1013.3
20 24.04 Ю 3 н/о н/о +17.2 +16.4 95 +17 +17 1021.1 1013.7
22 24.04 ЮЗ 2 н/о н/о +19.5 +18.3 93 +22 +22 комфорт 1021.4 1014.0
23 24.04 З 2 н/о н/о +20.2 +18.7 91 +24 +24 комфорт 1021.3 1013.9
01 25.04 СЗ 1 н/о н/о +23.1 +19.5 80 +30 +30 очень
душно
1020.8 1013.4
02 25.04 ЮВ 3 н/о н/о +21.5 +18.5 83 +26 +26 душно 1020.1 1012.7 +17.3
04 25.04 С 2 н/о н/о +21.7 +18.5 82 +26 +26 душно 1018.7 1011.3
05 25.04 В 3 н/о {туман} н/о +21.7 +18.1 80 +26 +26 душно 1018.6 1011.2
07 25.04 В 3 н/о н/о +20.4 +17.4 83 +24 +24 комфорт 1018.6 1011.2
08 25.04 В 3 н/о н/о +20.1 +16.9 82 +23 +23 комфорт 1018.9 1011.5
10 25.04 СВ 3 н/о н/о +20.0 +17.2 84 +23 +23 комфорт 1019.6 1012.2
11 25.04 С 3 н/о н/о +18.3 +16.5 89 +19 +19 1019.9 1012.5
13 25.04 СЗ 3 н/о н/о +17.9 +16.6 92 +18 +18 1019.1 1011.7
14 25.04 СЗ 3 н/о н/о +17.4 +16.1 92 +18 +18 1018.9 1011.5 +23.6
16 25.04 СЗ 3 н/о н/о +17.0 +15.7 92 +17 +17 1018.1 1010.7
17 25.04 З 4 н/о н/о +17.8 +16.3 91 +18 +18 1017.5 1010.1
19 25.04 СЗ 3 н/о н/о +16.3 +15.0 92 +16 +16 1017.4 1010.0
20 25.04 СЗ 3 н/о н/о +16.2 +15.1 93 +16 +16 1017.4 1010.0
22 25.04 З 3 н/о н/о +20.4 +18.3 88 +24 +24 комфорт 1018.2 1010.8
23 25.04 З 3 н/о н/о +22.9 +18.0 74 +28 +28 душно 1018.3 1010.9
01 26.04 СЗ 4 н/о н/о +26.8 +17.6 57 +31 +31 душно 1017.2 1009.8
02 26.04 С 4 н/о н/о +25.7 +17.4 60 +30 +30 душно 1015.9 1008.5 +16.0
04 26.04 СЗ 3 н/о н/о +26.9 +17.9 58 +31 +31 душно 1013.9 1006.6
05 26.04 СЗ 3 н/о н/о +25.2 +18.2 65 +30 +30 душно 1013.5 1006.2

 

Местоположение метеостанции Эванс Хед (Новый Южный Уэльс, Австралия): широта -29.18 долгота 153.40 высота над уровнем моря 63 м.

В архиве по умолчанию представлена погода в Эванс Хед за последнюю неделю. Архивные данные за месяц целиком и за предыдущие месяцы, начиная с января 2011 года, Вы можете получить, выбрав интересующий диапазон дат из раскрывающегося списка и нажав кнопку "Ввод!".


*Определитесь, кто Вы:
робот инопланетянин человек

Внимание! Время в таблицах - всемирное. Для получения местного времени необходимо прибавить поправку, которая равна 10 ч.

Смотрите также архив погоды в соседних городах и на ближайших метеорологических станциях:

Погода в Ямбе (Новый Южный Уэльс, Австралия) (28 км)
Погода в Баллине (Новый Южный Уэльс, Австралия) (42 км)
Погода в Лисморе (Новый Южный Уэльс, Австралия) (44 км)
Погода в Казино (Новый Южный Уэльс, Австралия) (48 км)
Погода в Графтоне (Новый Южный Уэльс, Австралия) (64 км)
Погода на Мысе Байрон (Новый Южный Уэльс, Австралия) (65 км)
Погода в Графтон аэропорту (Новый Южный Уэльс, Австралия) (73 км)
Погода в Кулангатта аэропорту (Новый Южный Уэльс, Австралия) (113 км)
Погода в Кофс-Харборе (Новый Южный Уэльс, Австралия) (129 км)
Погода в Голд-Косте (Квинсленд, Австралия) (139 км)

Пояснения к столбцам:

Ветер - указаны скорость ветра в м/с - средняя за 10 мин, порывы в срок и между сроками (в фигурных скобках) и направление, откуда дует ветер: С - северный, СВ - северо-восточный, В - восточный, ЮВ - юго-восточный, Ю - южный, ЮЗ - юго-западный, З - западный, СЗ - северо-западный.
Видимость - горизонтальная дальность видимости в метрах или километрах. При видимости от 1 до 10 км при отсутствии осадков обычно наблюдается дымка, при ухудшении видимости до 1 км и менее - туман. В сухую погоду видимость может ухудшаться дымом, пылью или мглою.
Явления - указаны атмосферные явления, наблюдавшиеся в срок или в последний час перед сроком; фигурными скобками обозначены явления, наблюдавшиеся между сроками (за 1-3 часа до срока); квадратными скобками обозначены град или гололедные отложения с указанием их диаметра в мм.
Облачность - указаны через наклонную черту общая и нижняя облачность в баллах и высота нижней границы облаков в метрах; квадратными скобками обозначены формы облаков: Ci - перистые, Cs - перисто-слоистые, Cc - перисто-кучевые, Ac - высококучевые, As - высокослоистые, Sc - слоисто-кучевые, Ns - слоисто-дождевые, Cu - кучевые, Cb - кучево-дождевые. Подробнее классификацию облаков см. в Атласе облаков (PDF).
T - Температура воздуха - температура, измеренная на высоте 2 м над землей.
Td - Температура точки росы - температура, при понижении до которой содержащийся в воздухе водяной пар достигнет насыщения.
f - Относительная влажность воздуха - влажноcть воздуха, измеренная на высоте 2 м над землей.
Te - Эффективная температура - температура, которую ощущает одетый по сезону человек в тени. Характеристика душности погоды. При расчете учитывается влияние влажности воздуха и скорости ветра на теплоощущения человека.
Tes - Эффективная температура на солнце - температура, которую ощущает человек, с поправкой на солнечный нагрев. Характеристика знойности погоды. Зависит от высоты солнца над горизонтом, облачности и скорости ветра. Ночью, в пасмурную погоду, а также при ветре 12 м/с и более поправка равна нулю.
P - Атмосферное давление - приведенное к уровню моря атмосферное давление.
Po - Атмосферное давление - измеренное на уровне метеостанции атмосферное давление.
Tmin - Минимальная температура - минимум температуры воздуха на высоте 2 м над землей.
Tmax - Максимальная температура - максимум температуры воздуха на высоте 2 м над землей.
R - Количество осадков - Количество выпавших осадков за период времени, мм. При наведении курсора мыши на число - период времени, за который выпало указанное количество осадков.
R24 - Количество осадков - Количество выпавших осадков за 24 часа, мм.
S - Снежный покров - Высота снежного покрова, см. При наведении курсора мыши на число - состояние снежного покрова и степень покрытия местности в баллах.